TimeEDT,TemperatureF,Dew PointF,Humidity,Sea Level PressureIn,VisibilityMPH,Wind Direction,Wind SpeedMPH,Gust SpeedMPH,PrecipitationIn,Events,Conditions,WindDirDegrees,DateUTC
12:53 AM,44.6,28.4,53,30.28,10.0,South,3.5,-,N/A,,Overcast,180,2012-10-14 04:53:00
1:53 AM,45.0,30.9,58,30.32,10.0,Calm,Calm,-,0.00,Rain,Light Rain,0,2012-10-14 05:53:00
2:53 AM,43.0,37.0,80,30.26,10.0,SE,9.2,-,0.01,Rain,Light Rain,140,2012-10-14 06:53:00
3:53 AM,42.1,37.9,85,30.26,10.0,SE,4.6,-,0.02,,Overcast,130,2012-10-14 07:53:00
4:53 AM,43.0,37.9,82,30.22,10.0,SSE,8.1,-,0.01,Rain,Light Rain,160,2012-10-14 08:53:00
5:53 AM,43.0,39.9,89,30.20,8.0,South,8.1,-,0.05,Rain,Light Rain,180,2012-10-14 09:53:00
6:53 AM,44.1,42.1,93,30.17,6.0,SSE,8.1,-,0.14,Rain,Light Rain,160,2012-10-14 10:53:00
7:53 AM,45.0,43.0,93,30.17,3.0,South,6.9,-,0.11,Rain,Light Rain,180,2012-10-14 11:53:00
8:53 AM,46.0,45.0,96,30.15,8.0,South,9.2,-,0.01,Rain,Light Rain,190,2012-10-14 12:53:00
9:53 AM,48.0,46.0,93,30.13,10.0,South,9.2,-,0.02,Rain,Light Rain,190,2012-10-14 13:53:00
10:53 AM,50.0,46.9,89,30.13,10.0,South,6.9,-,0.00,,Overcast,190,2012-10-14 14:53:00
11:53 AM,52.0,48.9,89,30.12,10.0,South,9.2,-,N/A,,Overcast,190,2012-10-14 15:53:00
12:53 PM,54.0,50.0,86,30.09,10.0,South,6.9,-,0.00,Rain,Light Rain,190,2012-10-14 16:53:00
1:15 PM,53.6,50.0,88,30.04,9.0,South,6.9,-,0.01,Rain,Light Rain,180,2012-10-14 17:15:00
1:53 PM,54.0,51.1,90,30.07,10.0,South,6.9,-,0.01,Rain,Light Rain,190,2012-10-14 17:53:00
2:53 PM,55.0,51.1,86,30.05,10.0,SSW,6.9,-,0.00,,Overcast,200,2012-10-14 18:53:00
3:53 PM,57.0,52.0,83,30.02,10.0,South,5.8,-,N/A,,Overcast,180,2012-10-14 19:53:00
4:53 PM,61.0,53.1,75,30.02,10.0,South,3.5,-,N/A,,Mostly Cloudy,180,2012-10-14 20:53:00
5:53 PM,59.0,53.1,81,30.01,10.0,South,3.5,-,N/A,,Clear,170,2012-10-14 21:53:00
6:53 PM,55.9,53.1,90,30.01,10.0,Calm,Calm,-,N/A,,Clear,0,2012-10-14 22:53:00
7:53 PM,55.9,52.0,87,30.00,10.0,Calm,Calm,-,N/A,,Clear,0,2012-10-14 23:53:00
8:53 PM,57.0,52.0,83,29.99,10.0,SSE,4.6,-,N/A,,Clear,150,2012-10-15 00:53:00
9:53 PM,57.0,52.0,83,29.98,10.0,South,9.2,-,N/A,,Mostly Cloudy,180,2012-10-15 01:53:00
10:53 PM,57.9,52.0,81,29.96,10.0,South,8.1,-,N/A,,Partly Cloudy,170,2012-10-15 02:53:00
11:53 PM,57.0,52.0,83,29.94,10.0,South,8.1,-,N/A,,Clear,180,2012-10-15 03:53:00